[[{"header":{"parameterUnit":"m.s-1","parameterCategory":1,"la1":30.2991,"la2":30.254,"lo1":-89.0895,"lo2":-89.0444,"dy":0.0017,"dx":0.0017,"nx":28,"ny":28,"refTime":"2025-12-14T03:00:00:Z","depth":0,"parameterNumber":2,"parameterNumberName":"U-component_of_WINDS"},"data":[0,0,0,0,0,0,0,0,0,0,0,0,0,0,0,0,0,0,0,0,0,0,0,0,0,0,0,0,0,0,0,0,0,0,0,0,0,0,0,0,0,0,0,0,0,0,0,0,0,0,0,0,0,0,0,0,0,0,-3.5475,-3.5476,0,-3.5512,-3.5513,-3.5513,-3.5423,-3.542,-3.5417,-3.5414,-3.5454,-3.5458,-3.5461,0,0,0,0,0,0,0,0,0,0,0,0,0,-3.5327,-3.5331,-3.5475,-3.5476,-3.5476,-3.5512,-3.5513,-3.5513,-3.5423,-3.542,-3.5416,-3.5413,-3.5453,-3.5457,-3.5462,0,0,0,0,0,0,0,0,0,0,0,0,0,-3.5381,-3.5332,-3.5475,-3.5435,-3.5432,-3.5512,-3.5513,-3.5514,-3.5424,-3.542,-3.5415,-3.5411,-3.5451,-3.5457,-3.5462,-3.5583,0,0,-3.548,-3.5482,0,0,0,0,0,0,0,0,-3.5378,-3.5386,-3.5441,-3.5438,-3.5435,-3.5458,-3.5475,-3.5537,-3.5425,-3.5427,-3.5414,-3.5409,-3.5459,-3.5464,-3.548,-3.5585,-3.5587,-3.548,-3.5483,-3.5486,-3.5487,0,0,0,0,0,0,0,-3.5374,-3.5384,-3.549,-3.5442,-3.5438,-3.5416,-3.5419,-3.5487,-3.5467,-3.5427,-3.542,-3.5426,-3.5457,-3.5475,-3.5481,-3.5587,-3.548,-3.5485,-3.5488,-3.549,-3.5793,-3.5798,0,0,0,0,0,0,-3.5376,-3.5382,-3.5489,-3.5491,-3.5395,-3.5422,-3.5426,-3.5455,-3.5466,-3.5463,-3.5429,-3.5421,-3.5468,-3.5474,-3.5482,-3.5624,-3.5486,-3.5491,-3.5494,-3.5789,-3.5794,-3.5799,0,0,0,0,0,0,-3.5373,-3.5386,-3.5487,-3.5435,-3.5446,-3.5429,-3.5464,-3.5458,-3.5477,-3.5468,-3.5464,-3.5452,-3.5465,-3.5474,-3.5559,-3.5625,-3.5494,-3.5499,-3.5783,-3.579,-3.5797,-3.5911,0,0,0,0,0,0,-3.5369,-3.5386,-3.5431,-3.5436,-3.5449,-3.5564,-3.5468,-3.5462,-3.5486,-3.5476,-3.5488,-3.5486,-3.5462,-3.5551,-3.5564,-3.563,-3.5503,-3.5777,-3.5786,-3.5795,-3.5901,-3.5921,-3.5938,0,0,0,0,0,-3.5364,-3.5462,-3.5434,-3.5447,-3.5506,-3.5568,-3.5575,-3.5545,-3.5492,-3.5538,-3.5532,-3.5485,-3.5615,-3.556,-3.5575,-3.5643,-3.5773,-3.5784,-3.5794,-3.5893,-3.5917,-3.5937,0,0,0,0,0,0,-3.5465,-3.5462,-3.5431,-3.5533,-3.5551,-3.5552,-3.5609,-3.5571,-3.5605,-3.5595,-3.5556,-3.556,-3.5652,-3.5655,-3.5595,-3.5761,-3.5685,-3.5699,-3.5755,-3.5778,-3.5796,-3.5794,-3.5508,0,0,0,0,0,-3.55,-3.555,-3.5544,-3.5635,-3.5646,-3.5626,-3.5652,-3.5627,-3.5645,-3.5652,-3.5652,-3.5672,-3.5717,-3.5747,-3.5788,-3.59,-3.5902,-3.5955,-3.5973,-3.5988,-3.6001,-3.6062,-3.6085,-3.5834,-3.5834,-3.5834,0,0,-3.5571,-3.5575,-3.561,-3.5656,-3.5667,-3.572,-3.5633,-3.5693,-3.5733,-3.5661,-3.5742,-3.5743,-3.5761,-3.5861,-3.5905,-3.5867,-3.607,-3.6001,-3.6014,-3.6018,-3.6075,-3.6099,-3.612,-3.5841,-3.584,-3.5839,0,0,-3.5729,-3.5737,-3.5814,-3.5826,-3.5844,-3.583,-3.5849,-3.5855,-3.5853,-3.5933,-3.588,-3.5927,-3.6005,-3.6021,-3.6039,-3.6202,-3.6161,-3.6216,-3.6313,-3.6372,-3.6392,-3.6409,-3.6469,-3.649,-3.6229,-3.6229,-3.623,0,-3.5816,-3.5894,-3.5858,-3.5922,-3.5944,-3.5881,-3.5959,-3.5973,-3.6004,-3.6021,-3.5977,-3.6074,-3.6082,-3.6185,-3.6225,-3.6241,-3.6262,-3.6216,-3.6392,-3.6409,-3.6425,-3.6481,-3.6503,-3.6236,-3.6235,-3.6235,-3.6234,0,-3.6,-3.6055,-3.6115,-3.6146,-3.6174,-3.6245,-3.6221,-3.6254,-3.6227,-3.6218,-3.63,-3.6307,-3.6349,-3.6371,-3.6345,-3.647,-3.6446,-3.6398,-3.6322,-3.6456,-3.6508,-3.6529,-3.6246,-3.6243,-3.6241,-3.624,0,0,-3.6225,-3.6234,-3.6257,-3.627,-3.6284,-3.6327,-3.6394,-3.6434,-3.6464,-3.6487,-3.6544,-3.6611,-3.6566,-3.6587,-3.6562,-3.6614,-3.6744,-3.6559,-3.6559,-3.6594,-3.6884,-3.6921,-3.6946,-3.6716,-3.672,-3.6723,-3.6882,0,-3.6381,-3.6498,-3.6467,-3.6583,-3.6634,-3.6574,-3.6633,-3.6649,-3.6642,-3.6685,-3.6677,-3.6726,-3.6662,-3.6675,-3.6723,-3.6718,-3.6802,-3.6706,-3.6769,-3.6772,-3.6768,-3.6973,-3.7013,-3.7163,-3.6902,-3.6906,-3.6908,0,-3.658,-3.661,-3.6732,-3.6738,-3.6758,-3.6812,-3.6846,-3.6887,-3.6903,-3.6894,-3.6918,-3.6882,-3.695,-3.6871,-3.6964,-3.69,-3.6924,-3.6925,-3.693,-3.6936,-3.685,-3.6986,-3.721,-3.7234,-3.694,-3.6937,-3.6935,0,-3.6733,-3.6804,-3.6886,-3.6899,-3.6908,-3.6947,-3.6953,-3.6965,-3.6991,-3.7021,-3.7037,-3.7075,-3.7096,-3.7126,-3.7102,-3.7047,-3.7199,-3.7118,-3.7195,-3.7196,-3.7231,-3.7229,-3.7463,-3.7244,-3.7244,-3.7243,-3.7243,0,-3.6913,-3.6989,-3.6955,-3.7005,-3.709,-3.7054,-3.7138,-3.7137,-3.7148,-3.7198,-3.7148,-3.7196,-3.716,-3.7205,-3.7186,-3.7266,-3.7276,-3.7272,-3.7266,-3.7277,-3.7278,-3.7293,-3.7283,-3.7249,-3.7248,-3.7247,-3.7246,0,-3.7099,-3.7078,-3.7164,-3.7165,-3.7167,-3.7229,-3.723,-3.7277,-3.7266,-3.733,-3.7342,-3.7326,-3.7376,-3.7354,-3.7407,-3.7394,-3.7498,-3.7477,-3.7492,-3.7488,-3.7566,-3.7559,-3.7819,-3.7852,-3.761,-3.7613,-3.7615,0,-3.7215,-3.7273,-3.728,-3.7309,-3.7318,-3.7366,-3.7392,-3.7359,-3.7389,-3.7411,-3.7456,-3.7501,-3.7536,-3.7619,-3.7612,-3.7652,-3.7633,-3.7722,-3.7639,-3.7649,-3.7636,-3.7634,-3.764,-3.7739,-3.7742,-3.7744,-3.7746,0,-3.7425,-3.7412,-3.7451,-3.7487,-3.7519,-3.7546,-3.7569,-3.7596,-3.7563,-3.7599,-3.7649,-3.7676,-3.773,-3.7776,-3.7811,-3.7817,-3.7777,-3.7772,-3.7792,-3.7804,-3.7811,-3.781,-3.7539,-3.7766,-3.7764,-3.7763,-3.7762,-3.7761,-3.758,-3.7629,-3.7642,-3.7687,-3.77,-3.7723,-3.7767,-3.7761,-3.7802,-3.7843,-3.7821,-3.788,-3.7895,-3.7938,-3.7949,-3.7995,-3.7961,-3.7989,-3.7997,-3.8005,-3.8016,-3.7802,-3.8001,-3.8001,-3.8,-3.8,-3.7999,0,-3.7788,-3.7793,-3.7835,-3.7868,-3.7904,-3.7862,-3.7884,-3.7918,-3.797,-3.7987,-3.8022,-3.808,-3.8124,-3.812,-3.8161,-3.8199,-3.8181,-3.8211,-3.8209,-3.8211,-3.8044,-3.8023,-3.8224,-3.8224,-3.8224,-3.8224,-3.8224,-3.8224,-3.7901,-3.7981,-3.797,-3.8056,-3.806,-3.8117,-3.8134,-3.8155,-3.8168,-3.8235,-3.8271,-3.8268,-3.8277,-3.8318,-3.8357,-3.8354,-3.8372,-3.8409,-3.84,-3.8245,-3.8222,-3.8201,-3.8182,-3.8413,-3.8413,-3.8563,-3.8565,-3.8566]},{"header":{"parameterUnit":"m.s-1","parameterCategory":1,"la1":30.2991,"la2":30.254,"lo1":-89.0895,"lo2":-89.0444,"dy":0.0017,"dx":0.0017,"nx":28,"ny":28,"refTime":"2025-12-14T03:00:00:Z","depth":0,"parameterNumber":3,"parameterNumberName":"V-component_of_WINDS"},"data":[0,0,0,0,0,0,0,0,0,0,0,0,0,0,0,0,0,0,0,0,0,0,0,0,0,0,0,0,0,0,0,0,0,0,0,0,0,0,0,0,0,0,0,0,0,0,0,0,0,0,0,0,0,0,0,0,0,0,-3.8144,-3.8144,0,-3.8144,-3.8144,-3.8144,-3.8108,-3.8107,-3.8106,-3.8105,-3.8105,-3.8106,-3.8107,0,0,0,0,0,0,0,0,0,0,0,0,0,-3.8112,-3.8113,-3.8144,-3.8144,-3.8144,-3.8144,-3.8144,-3.8144,-3.8108,-3.8107,-3.8106,-3.8105,-3.8105,-3.8106,-3.8107,0,0,0,0,0,0,0,0,0,0,0,0,0,-3.8121,-3.8113,-3.8144,-3.8126,-3.8125,-3.8144,-3.8144,-3.8144,-3.8109,-3.8107,-3.8106,-3.8104,-3.8105,-3.8106,-3.8107,-3.8144,0,0,-3.8111,-3.8112,0,0,0,0,0,0,0,0,-3.812,-3.8122,-3.8129,-3.8127,-3.8126,-3.8125,-3.8133,-3.8144,-3.8109,-3.8115,-3.8105,-3.8104,-3.8113,-3.8114,-3.8117,-3.8144,-3.8144,-3.8112,-3.8112,-3.8113,-3.8113,0,0,0,0,0,0,0,-3.812,-3.8122,-3.8144,-3.8129,-3.8127,-3.8118,-3.8118,-3.8135,-3.8122,-3.8114,-3.8111,-3.8112,-3.8112,-3.8115,-3.8116,-3.8144,-3.8112,-3.8113,-3.8114,-3.8114,-3.8199,-3.8201,0,0,0,0,0,0,-3.8122,-3.8121,-3.8144,-3.8144,-3.8119,-3.812,-3.8119,-3.8126,-3.8121,-3.8119,-3.8113,-3.811,-3.8114,-3.8115,-3.8116,-3.8157,-3.8113,-3.8114,-3.8115,-3.8198,-3.82,-3.8201,0,0,0,0,0,0,-3.8121,-3.8124,-3.8144,-3.8132,-3.8134,-3.8122,-3.813,-3.8127,-3.8131,-3.8121,-3.8118,-3.8119,-3.8113,-3.8114,-3.8137,-3.8157,-3.8115,-3.8116,-3.8196,-3.8198,-3.82,-3.8241,0,0,0,0,0,0,-3.812,-3.8124,-3.8138,-3.8132,-3.8135,-3.8165,-3.8131,-3.8128,-3.8133,-3.8129,-3.8126,-3.8124,-3.8112,-3.8135,-3.8138,-3.8158,-3.8117,-3.8194,-3.8197,-3.82,-3.8238,-3.8244,-3.825,0,0,0,0,0,-3.8119,-3.815,-3.8139,-3.8142,-3.8152,-3.8166,-3.8167,-3.8153,-3.8135,-3.8148,-3.8142,-3.8124,-3.8154,-3.8138,-3.8141,-3.8161,-3.8193,-3.8196,-3.8199,-3.8235,-3.8243,-3.825,0,0,0,0,0,0,-3.8158,-3.8149,-3.8137,-3.8166,-3.8167,-3.816,-3.8177,-3.8162,-3.8168,-3.8164,-3.8146,-3.8146,-3.8171,-3.8168,-3.815,-3.8196,-3.817,-3.8174,-3.8196,-3.8204,-3.821,-3.8209,-3.8118,0,0,0,0,0,-3.817,-3.8183,-3.8174,-3.8201,-3.8202,-3.8189,-3.8195,-3.8184,-3.8184,-3.8184,-3.818,-3.8181,-3.819,-3.8197,-3.8205,-3.8237,-3.8235,-3.8253,-3.8259,-3.8264,-3.8268,-3.8283,-3.829,-3.8212,-3.8212,-3.8212,0,0,-3.8195,-3.8191,-3.82,-3.8208,-3.8208,-3.8221,-3.819,-3.8205,-3.8215,-3.8187,-3.8207,-3.8204,-3.8204,-3.8231,-3.8242,-3.823,-3.8289,-3.8268,-3.8272,-3.8273,-3.8287,-3.8295,-3.8301,-3.8214,-3.8214,-3.8214,0,0,-3.8247,-3.8246,-3.8267,-3.8267,-3.8267,-3.8258,-3.8263,-3.8258,-3.8255,-3.8275,-3.8254,-3.8265,-3.8282,-3.8282,-3.8285,-3.8336,-3.8319,-3.8339,-3.8371,-3.8386,-3.8392,-3.8398,-3.8415,-3.8421,-3.8343,-3.8343,-3.8343,0,-3.8278,-3.8297,-3.8281,-3.8297,-3.83,-3.8275,-3.8297,-3.8298,-3.83,-3.8303,-3.8288,-3.8309,-3.8307,-3.8333,-3.8345,-3.8349,-3.8353,-3.8339,-3.8393,-3.8398,-3.8403,-3.8419,-3.8425,-3.8345,-3.8345,-3.8345,-3.8345,0,-3.8334,-3.8348,-3.8365,-3.8367,-3.8373,-3.8392,-3.8378,-3.8386,-3.8374,-3.8367,-3.8387,-3.8384,-3.8391,-3.8396,-3.8385,-3.8421,-3.8413,-3.8396,-3.837,-3.8413,-3.8428,-3.8434,-3.8349,-3.8348,-3.8347,-3.8347,0,0,-3.8411,-3.8403,-3.841,-3.841,-3.8407,-3.8417,-3.8434,-3.8441,-3.8447,-3.8449,-3.8463,-3.8478,-3.8462,-3.8465,-3.8453,-3.8467,-3.8506,-3.8448,-3.8448,-3.8458,-3.8544,-3.8556,-3.8564,-3.8495,-3.8496,-3.8497,-3.8544,0,-3.846,-3.8489,-3.8475,-3.8506,-3.8517,-3.8493,-3.8508,-3.8508,-3.8501,-3.851,-3.8503,-3.8513,-3.8492,-3.8493,-3.8506,-3.8499,-3.8523,-3.8495,-3.8507,-3.8508,-3.8507,-3.8572,-3.8585,-3.8629,-3.855,-3.8551,-3.8551,0,-3.8522,-3.8526,-3.8558,-3.8552,-3.8556,-3.857,-3.8574,-3.8582,-3.8581,-3.8575,-3.8578,-3.8563,-3.8579,-3.8554,-3.8576,-3.8557,-3.8561,-3.8558,-3.856,-3.856,-3.8532,-3.8573,-3.8643,-3.8649,-3.856,-3.856,-3.8559,0,-3.8574,-3.8587,-3.8607,-3.8608,-3.8602,-3.8612,-3.861,-3.8607,-3.8611,-3.8615,-3.8617,-3.8623,-3.8626,-3.8631,-3.8617,-3.86,-3.864,-3.8614,-3.8636,-3.8636,-3.8645,-3.8644,-3.8716,-3.8649,-3.8649,-3.8649,-3.8648,0,-3.863,-3.865,-3.863,-3.8643,-3.8664,-3.8647,-3.8669,-3.8664,-3.8662,-3.8673,-3.8653,-3.8663,-3.8645,-3.8654,-3.8644,-3.8663,-3.8664,-3.866,-3.8657,-3.8661,-3.8662,-3.8663,-3.8659,-3.865,-3.865,-3.865,-3.8649,0,-3.8691,-3.8679,-3.8699,-3.8691,-3.8689,-3.8705,-3.8698,-3.8709,-3.8701,-3.8715,-3.8717,-3.8705,-3.8714,-3.8701,-3.8709,-3.8702,-3.8728,-3.872,-3.8728,-3.8726,-3.8747,-3.8745,-3.8822,-3.883,-3.8759,-3.8759,-3.876,0,-3.8727,-3.8742,-3.8735,-3.8741,-3.8739,-3.8749,-3.8753,-3.8736,-3.8741,-3.874,-3.8751,-3.8759,-3.8764,-3.8779,-3.8771,-3.8777,-3.8769,-3.8795,-3.877,-3.8773,-3.8768,-3.8767,-3.8768,-3.88,-3.8801,-3.8802,-3.8803,0,-3.8793,-3.8786,-3.8792,-3.8796,-3.8801,-3.8804,-3.8805,-3.8811,-3.8794,-3.88,-3.8809,-3.8813,-3.882,-3.8828,-3.8831,-3.8829,-3.8813,-3.8811,-3.8816,-3.882,-3.8823,-3.8821,-3.8741,-3.8809,-3.8808,-3.8808,-3.8807,-3.8807,-3.8842,-3.8853,-3.885,-3.8857,-3.8856,-3.8858,-3.8867,-3.886,-3.8867,-3.8871,-3.8861,-3.8872,-3.887,-3.8873,-3.8872,-3.888,-3.8869,-3.8876,-3.8878,-3.888,-3.8883,-3.8823,-3.8881,-3.8881,-3.8881,-3.888,-3.888,0,-3.8906,-3.8902,-3.8909,-3.8911,-3.8916,-3.89,-3.8901,-3.8906,-3.8916,-3.8915,-3.892,-3.893,-3.8937,-3.8928,-3.8934,-3.8942,-3.8934,-3.8944,-3.8942,-3.8942,-3.8894,-3.8888,-3.8949,-3.8949,-3.8949,-3.8949,-3.8949,-3.8949,-3.8939,-3.8957,-3.895,-3.8967,-3.8963,-3.8973,-3.8974,-3.8975,-3.8974,-3.8986,-3.8991,-3.8985,-3.8981,-3.8986,-3.8991,-3.8989,-3.8991,-3.9003,-3.8998,-3.8952,-3.8946,-3.8939,-3.8934,-3.9004,-3.9004,-3.9045,-3.9045,-3.9046]}]]